{"data":{"norad_id":57679,"epoch":"2026-05-24T14:27:08.201664Z","epoch_age_seconds":106438,"freshness":"FRESH","line1":"1 57679U 23124S   26144.60217826  .00000428  00000+0  26563-4 0  9994","line2":"2 57679  53.1599 213.9891 0001180  78.8928 281.2205 15.30193925155192","mean_motion":15.30193925,"eccentricity":0.000118,"inclination_deg":53.1599,"raan_deg":213.9891,"arg_perigee_deg":78.8928,"mean_anomaly_deg":281.2205,"bstar":2.6563e-5,"rev_number":15519,"period_min":94.105719312668,"perigee_km":474.42451064973,"apogee_km":476.04190601889,"semimajor_km":6853.3702083343,"source":"CELESTRAK","updated_at":"2026-05-25T13:38:18.369545Z"}}